S-NET C (43189 NORAD) Tracking and Keplerian Element Data

This shows tracking and keplerian element data for the satellite.

Feedback or suggestion? Click here.




ElementValue
Catalog43189
NameS-NET C
Epoch Orbit6538
Epoch Day114.1998546
Epoch Year2019
RAAN23.4386
Inclination97.7121
Eccentricity0.0010781
Argument of Perigee184.7447
Mean Anonmoly175.3674
Mean Motion14.96614127
Decay Rate-1.29E-06
L11 43189U 18014K 19114.19985460 -.00000129 00000-0 -62535-5 0 9997
L22 43189 97.7121 23.4386 0010781 184.7447 175.3674 14.96614127 65388

Live tracking and technical data element details for S-NET C (NORAD 43189). S-NET C can be tracked NOW for your location showing map with azimuth and elevation plus other details from your city location.

Track the satellite on the map from your city or location and see movement details for azimuth, elevation, latitude, longitude, range, height, and movement on the map or in text.







IsCatalogInMostPopularTable: catalog: 43189, numindb: 208
Update: records affected: 1



GetName: 43189 S-NET C

Hit Count: updated at: Thu, 25 Apr 2019 20:46:30 GMT